Location: Budapest
(47.4979°N, 19.0402°E)
Time: 22:13:37
(UTC+02:00)

Vanguard 2 Rocket - All Passes

Search period start: 16 August 2018 00:00
Search period end: 26 August 2018 00:00
Orbit: 554 x 3327 km, 32.9° (Epoch: 15 August)

Date Brightness Start Highest point End Pass type
(mag) Time Alt. Az. Time Alt. Az. Time Alt. Az.
16 Aug - 15:39:46 10° SSE 15:42:49 11° SSE 15:45:38 10° SE daylight
16 Aug - 17:47:30 10° SSW 17:56:58 23° SSE 18:03:31 10° ESE daylight
16 Aug - 20:02:11 10° SW 20:10:18 27° S 20:15:38 10° SE daylight
16 Aug - 22:18:24 10° WSW 22:22:27 16° SSW 22:25:38 10° SSE visible
17 Aug - 16:47:04 10° SSW 16:56:56 21° SSE 17:04:05 10° ESE daylight
17 Aug - 19:00:57 10° SW 19:10:46 29° S 19:17:05 10° ESE daylight
17 Aug - 21:17:03 10° WSW 21:23:27 23° SSW 21:27:55 10° SSE visible
18 Aug - 15:47:14 10° S 15:56:41 18° SSE 16:04:00 10° ESE daylight
18 Aug - 17:59:42 10° SW 18:10:57 29° S 18:18:15 10° ESE daylight
18 Aug - 20:15:39 10° WSW 20:24:14 29° S 20:29:46 10° SE visible
18 Aug - 22:33:07 10° WSW 22:36:05 13° SSW 22:38:34 10° S visible
19 Aug - 14:48:33 10° S 14:56:18 15° SSE 15:02:49 10° ESE daylight
19 Aug - 16:58:36 10° SW 17:10:52 28° SSE 17:19:07 10° ESE daylight
19 Aug - 19:14:06 10° WSW 19:24:43 33° S 19:31:21 10° ESE daylight
19 Aug - 21:31:05 10° WSW 21:37:10 20° SSW 21:41:32 10° SSE visible
20 Aug - 13:53:37 10° SSE 13:55:50 10° SE 13:57:59 10° SE daylight
20 Aug - 15:57:53 10° SSW 16:10:31 26° SSE 16:19:34 10° ESE daylight
20 Aug - 18:12:28 10° SW 18:24:53 35° S 18:32:39 10° ESE daylight
20 Aug - 20:29:21 10° WSW 20:38:02 28° SSW 20:43:40 10° SE visible
21 Aug - 14:57:50 10° SSW 15:10:00 22° SSE 15:19:23 10° ESE daylight
21 Aug - 17:10:55 10° SW 17:24:45 34° S 17:33:41 10° ESE daylight
21 Aug - 19:27:33 10° WSW 19:38:34 34° SSW 19:45:24 10° SE daylight
21 Aug - 21:45:31 10° WSW 21:50:44 17° SW 21:54:41 10° S visible
22 Aug - 13:58:50 10° S 14:09:23 18° SE 14:18:15 10° ESE daylight
22 Aug - 16:09:39 10° SW 16:24:19 33° SSE 16:34:21 10° ESE daylight
22 Aug - 18:25:38 10° WSW 18:38:46 38° S 18:46:50 10° ESE daylight
22 Aug - 20:43:19 10° WSW 20:51:41 25° SSW 20:57:17 10° SSE visible
23 Aug - 13:01:58 10° SSE 13:08:48 13° SE 13:15:04 10° ESE daylight
23 Aug - 15:08:52 10° SSW 15:23:40 29° SSE 15:34:35 10° ESE daylight
23 Aug - 17:23:46 10° WSW 17:38:36 39° S 17:47:58 10° ESE daylight
23 Aug - 19:41:13 10° WSW 19:52:18 33° SSW 19:59:16 10° SE daylight
23 Aug - 22:00:49 10° WSW 22:04:05 12° SW 22:06:51 10° SSW visible
24 Aug - 14:08:49 10° SSW 14:22:54 25° SSE 14:34:11 10° ESE daylight
24 Aug - 16:22:06 10° SW 16:38:06 39° S 16:48:46 10° ESE daylight
24 Aug - 18:39:04 10° WSW 18:52:32 38° SSW 19:00:50 10° SE daylight
24 Aug - 20:57:34 10° WSW 21:05:09 21° SW 21:10:30 10° S visible
25 Aug - 13:09:50 10° S 13:22:07 20° SE 13:32:51 10° ESE daylight
25 Aug - 15:20:50 10° SW 15:37:19 36° SSE 15:49:11 10° ESE daylight
25 Aug - 17:36:57 10° WSW 17:52:23 42° S 18:02:05 10° ESE daylight
25 Aug - 19:55:05 10° WSW 20:05:53 29° SSW 20:12:52 10° SSE visible
